Вернуться в каталог

FENGYUN 1C DEB

АктивенSSO
NORAD 30138·DEBRIS·🇨🇳 China

Запущен May 10, 1999 с Taiyuan Satellite Launch Center

Loading…

Ближайшие Пролёты (ближайшие 24 часа)

TLE

СвежийSource: Space-Track

Эпоха: Sep 13, 2026, 22:50 UTC

1 30138U 99025ST  26256.95160498  .00001115  00000-0  53460-3 0  9992
2 30138  98.7340 312.1884 0021131  69.4656 106.1436 14.20855116 13085

Отслеживайте FENGYUN 1C DEB в реальном времени с AllMySat

Download on the App Store